Terminal Aerodrome Forecast
Issued by NWS Grand Forks, ND

Home | Current Version | Previous Version | Text Only | Print | Product List | Glossary On
Versions: 1 2 3 4 5 6 7 8 9 10 11 12 13 14 15 16 17
000
FTUS43 KFGF 301123
TAFFAR
TAF
KFAR 301123Z 3012/3112 VRB06KT P6SM SCT100
     FM301600 16012KT P6SM SCT250
     FM302100 16010KT P6SM VCTS SCT250CB
     FM310000 15009KT P6SM BKN090
      TEMPO 3100/3103 3SM TSRA BKN040CB
     FM310300 12009KT P6SM SHRA OVC060
     FM310800 15008KT P6SM OVC040=

USA.gov is the U.S. government's official web portal to all federal, state and local government web resources and services.